Location: Newark
(25.1987°N, 100.3705°W)
Time: 05:24:23
(UTC+00:00)

LightSail 2 - Pass Details

Date: 13 April 2020
Orbit: 695 x 719 km, 24.0° (Epoch: 28 May)

Event Time Altitude Azimuth Distance (km) Brightness Sun altitude
Exits shadow 11:30:02 16° 267° (W) 1,795 6.6 -11.9°
Maximum altitude 11:34:02 58° 191° (SSW) 804 5.3 -11.1°
Drops below altitude 10° 11:38:59 10° 113° (ESE) 2,141 8.5 -10.0°
Sets 11:41:26 0° 109° (ESE) 3,055 9.4 -9.4°
